Zurück zum Katalog

STARLINK-34301

AktivKommunikationVLEO
NORAD 64349·PAYLOAD·🇺🇸 United States

Gestartet Jun 13, 2025 von Vandenberg Space Force Base

Loading…

Nächste Überflüge (nächste 24 Stunden)

TLE

AktuellSource: CelesTrak SupGP

Epoche: Sep 14, 2026, 14:09 UTC

1 64349C 25126F   26257.59006944 -.00032053  00000+0 -11160-2 0  2573
2 64349  69.9999 276.7019 0003616 276.1267 102.5231 15.29566840    19

Verfolge STARLINK-34301 in Echtzeit mit AllMySat

Download on the App Store